• In Spain
  • List of Countries
  • For 7 days
  • Water Temperature
  • Satellite Maps
  • Weather Map
  • Weather Widgets
  • user-avatar
    Login

    Hourly Weather Torres Vedras

    Today, 21 November, Tuesday

    Time Temperature Precipitation Wind Pressure Humidity
    00:00 +12°C° 0 mm 2 mps 759 mmHg 55%
    01:00 +11°C° 0 mm 3 mps 759 mmHg 56%
    02:00 +11°C° 0 mm 3 mps 759 mmHg 57%
    03:00 +10°C° 0 mm 3 mps 759 mmHg 58%
    04:00 +10°C° 0 mm 3 mps 759 mmHg 58%
    05:00 +10°C° 0 mm 3 mps 759 mmHg 59%
    06:00 +11°C° 0 mm 4 mps 759 mmHg 56%
    07:00 +12°C° 0 mm 4 mps 759 mmHg 53%
    08:00 +12°C° 0 mm 4 mps 759 mmHg 50%
    09:00 +15°C° 0 mm 4 mps 759 mmHg 45%
    10:00 +18°C° 0 mm 4 mps 759 mmHg 41%
    11:00 +21°C° 0 mm 4 mps 758 mmHg 37%
    12:00 +21°C° 0 mm 5 mps 758 mmHg 37%
    13:00 +22°C° 0 mm 5 mps 758 mmHg 38%
    14:00 +22°C° 0 mm 5 mps 757 mmHg 38%
    15:00 +20°C° 0 mm 5 mps 757 mmHg 48%
    16:00 +18°C° 0 mm 4 mps 757 mmHg 58%
    17:00 +15°C° 0 mm 4 mps 757 mmHg 68%
    18:00 +15°C° 0 mm 4 mps 757 mmHg 73%
    19:00 +14°C° 0 mm 4 mps 757 mmHg 78%
    20:00 +13°C° 0 mm 4 mps 757 mmHg 82%
    21:00 +13°C° 0 mm 4 mps 756 mmHg 83%
    22:00 +13°C° 0 mm 5 mps 756 mmHg 84%
    23:00 +12°C° 0 mm 5 mps 756 mmHg 85%

    Tomorrow, 22 November, Wednesday

    Time Temperature Precipitation Wind Pressure Humidity
    00:00 +12°C° 0 mm 5 mps 755 mmHg 83%
    01:00 +12°C° 0 mm 5 mps 755 mmHg 81%
    02:00 +10°C° 0 mm 5 mps 755 mmHg 79%
    03:00 +10°C° 0 mm 6 mps 755 mmHg 76%
    04:00 +10°C° 0 mm 6 mps 754 mmHg 74%
    05:00 +10°C° 0 mm 6 mps 754 mmHg 71%
    06:00 +11°C° 0 mm 7 mps 754 mmHg 68%
    07:00 +12°C° 0 mm 7 mps 754 mmHg 65%
    08:00 +13°C° 0 mm 8 mps 753 mmHg 62%
    09:00 +17°C° 0 mm 8 mps 753 mmHg 57%
    10:00 +19°C° 0 mm 9 mps 753 mmHg 52%
    11:00 +23°C° 0 mm 9 mps 753 mmHg 46%
    12:00 +22°C° 0.2 mm 9 mps 753 mmHg 47%
    13:00 +22°C° 0.2 mm 8 mps 753 mmHg 48%
    14:00 +22°C° 0.2 mm 8 mps 753 mmHg 49%
    15:00 +21°C° 0.2 mm 7 mps 753 mmHg 57%
    16:00 +18°C° 0.2 mm 7 mps 753 mmHg 64%
    17:00 +17°C° 0.2 mm 6 mps 753 mmHg 71%
    18:00 +17°C° 0.1 mm 6 mps 753 mmHg 73%
    19:00 +17°C° 0.1 mm 6 mps 753 mmHg 75%
    20:00 +17°C° 0.1 mm 7 mps 753 mmHg 76%
    21:00 +17°C° 0.3 mm 6 mps 753 mmHg 79%
    22:00 +17°C° 0.3 mm 6 mps 753 mmHg 81%
    23:00 +17°C° 0.3 mm 6 mps 753 mmHg 84%

    Day after tomorrow, 23 November, Thursday

    Time Temperature Precipitation Wind Pressure Humidity
    00:00 +17°C° 0.3 mm 6 mps 753 mmHg 86%
    01:00 +16°C° 0.3 mm 5 mps 753 mmHg 87%
    02:00 +16°C° 0.3 mm 5 mps 753 mmHg 89%
    03:00 +16°C° 0.2 mm 5 mps 753 mmHg 88%
    04:00 +17°C° 0.2 mm 5 mps 753 mmHg 87%
    05:00 +17°C° 0.2 mm 5 mps 753 mmHg 86%
    06:00 +17°C° 0 mm 6 mps 753 mmHg 82%
    07:00 +17°C° 0 mm 6 mps 754 mmHg 78%
    08:00 +18°C° 0 mm 7 mps 754 mmHg 74%
    09:00 +20°C° 0 mm 8 mps 754 mmHg 61%
    10:00 +22°C° 0 mm 9 mps 754 mmHg 48%
    11:00 +23°C° 0 mm 9 mps 754 mmHg 36%
    12:00 +23°C° 0 mm 9 mps 754 mmHg 34%
    13:00 +23°C° 0 mm 9 mps 754 mmHg 33%
    14:00 +23°C° 0 mm 9 mps 754 mmHg 32%
    15:00 +22°C° 0 mm 9 mps 753 mmHg 36%
    16:00 +21°C° 0 mm 9 mps 753 mmHg 40%
    17:00 +20°C° 0 mm 8 mps 753 mmHg 43%
    18:00 +19°C° 0 mm 9 mps 753 mmHg 45%
    19:00 +18°C° 0 mm 9 mps 753 mmHg 47%
    20:00 +18°C° 0 mm 9 mps 753 mmHg 49%
    21:00 +18°C° 0 mm 9 mps 753 mmHg 48%
    22:00 +19°C° 0 mm 10 mps 753 mmHg 47%
    23:00 +19°C° 0 mm 10 mps 753 mmHg 46%

    24 November, Friday

    Time Temperature Precipitation Wind Pressure Humidity
    00:00 +19°C° 0.7 mm 9 mps 753 mmHg 53%
    01:00 +18°C° 0.7 mm 9 mps 753 mmHg 60%
    02:00 +18°C° 0.7 mm 8 mps 753 mmHg 67%
    03:00 +18°C° 0.9 mm 8 mps 753 mmHg 70%
    04:00 +18°C° 0.9 mm 7 mps 753 mmHg 73%
    05:00 +17°C° 0.9 mm 7 mps 753 mmHg 76%
    06:00 +17°C° 1.1 mm 7 mps 753 mmHg 76%
    07:00 +18°C° 1.1 mm 7 mps 753 mmHg 76%
    08:00 +18°C° 1.1 mm 7 mps 754 mmHg 76%
    09:00 +18°C° 1.4 mm 7 mps 754 mmHg 78%
    10:00 +18°C° 1.4 mm 7 mps 754 mmHg 80%
    11:00 +18°C° 1.4 mm 7 mps 754 mmHg 81%
    12:00 +20°C° 0.8 mm 7 mps 753 mmHg 77%
    13:00 +20°C° 0.8 mm 8 mps 753 mmHg 72%
    14:00 +21°C° 0.8 mm 8 mps 752 mmHg 68%
    15:00 +21°C° 0.9 mm 8 mps 752 mmHg 70%
    16:00 +20°C° 0.9 mm 7 mps 753 mmHg 72%
    17:00 +18°C° 0.9 mm 7 mps 753 mmHg 75%
    18:00 +19°C° 0.6 mm 6 mps 753 mmHg 73%
    19:00 +19°C° 0.6 mm 6 mps 754 mmHg 72%
    20:00 +19°C° 0.6 mm 5 mps 754 mmHg 71%
    21:00 +19°C° 0.7 mm 4 mps 754 mmHg 74%
    22:00 +19°C° 0.7 mm 4 mps 754 mmHg 76%
    23:00 +19°C° 0.7 mm 3 mps 754 mmHg 79%

    25 November, Saturday

    Time Temperature Precipitation Wind Pressure Humidity
    00:00 +18°C° 0.6 mm 3 mps 754 mmHg 82%
    01:00 +18°C° 0.6 mm 3 mps 754 mmHg 85%
    02:00 +17°C° 0.6 mm 3 mps 754 mmHg 88%
    03:00 +17°C° 0.6 mm 4 mps 755 mmHg 90%
    04:00 +16°C° 0.6 mm 5 mps 755 mmHg 92%
    05:00 +16°C° 0.6 mm 5 mps 755 mmHg 93%
    06:00 +16°C° 0.6 mm 5 mps 755 mmHg 93%
    07:00 +16°C° 0.6 mm 5 mps 756 mmHg 93%
    08:00 +16°C° 0.6 mm 5 mps 757 mmHg 93%
    09:00 +16°C° 1 mm 5 mps 757 mmHg 92%
    10:00 +16°C° 1 mm 5 mps 757 mmHg 91%
    11:00 +16°C° 1 mm 5 mps 757 mmHg 89%
    12:00 +18°C° 0.6 mm 4 mps 757 mmHg 88%
    13:00 +18°C° 0.6 mm 4 mps 757 mmHg 86%
    14:00 +18°C° 0.6 mm 3 mps 757 mmHg 85%
    15:00 +17°C° 0.2 mm 3 mps 757 mmHg 85%
    16:00 +17°C° 0.2 mm 2 mps 758 mmHg 86%
    17:00 +17°C° 0.2 mm 2 mps 758 mmHg 87%
    18:00 +17°C° 0.3 mm 3 mps 758 mmHg 87%
    19:00 +17°C° 0.3 mm 4 mps 759 mmHg 87%
    20:00 +15°C° 0.3 mm 5 mps 759 mmHg 88%
    21:00 +15°C° 0.5 mm 5 mps 759 mmHg 87%
    22:00 +15°C° 0.5 mm 5 mps 759 mmHg 87%
    23:00 +15°C° 0.5 mm 5 mps 759 mmHg 86%

    26 November, Sunday

    Time Temperature Precipitation Wind Pressure Humidity
    00:00 +14°C° 0.4 mm 5 mps 759 mmHg 86%
    01:00 +14°C° 0.4 mm 5 mps 759 mmHg 85%
    02:00 +14°C° 0.4 mm 5 mps 759 mmHg 85%
    03:00 +14°C° 0.2 mm 5 mps 759 mmHg 85%
    04:00 +14°C° 0.2 mm 6 mps 759 mmHg 85%
    05:00 +14°C° 0.2 mm 6 mps 759 mmHg 85%
    06:00 +14°C° 0.1 mm 6 mps 760 mmHg 85%
    07:00 +14°C° 0.1 mm 6 mps 760 mmHg 85%
    08:00 +14°C° 0.1 mm 6 mps 760 mmHg 84%
    09:00 +15°C° 0 mm 6 mps 760 mmHg 80%
    10:00 +16°C° 0 mm 6 mps 760 mmHg 75%
    11:00 +19°C° 0 mm 6 mps 760 mmHg 71%
    12:00 +19°C° 0 mm 6 mps 760 mmHg 67%
    13:00 +20°C° 0 mm 6 mps 759 mmHg 64%
    14:00 +21°C° 0 mm 5 mps 759 mmHg 61%
    15:00 +20°C° 0 mm 5 mps 759 mmHg 64%
    16:00 +19°C° 0 mm 6 mps 759 mmHg 67%
    17:00 +17°C° 0 mm 6 mps 759 mmHg 70%
    18:00 +16°C° 0 mm 6 mps 759 mmHg 71%
    19:00 +16°C° 0 mm 6 mps 758 mmHg 72%
    20:00 +16°C° 0 mm 6 mps 758 mmHg 72%
    21:00 +15°C° 0 mm 6 mps 758 mmHg 72%
    22:00 +15°C° 0 mm 6 mps 758 mmHg 73%
    23:00 +15°C° 0 mm 6 mps 758 mmHg 73%
    Show more